星链-2049 (STARLINK-2049 )

导读 | 豆包AI

STARLINK-2049是美国SpaceX公司星链(Starlink)卫星互联网星座的一员,于2021年1月20日发射升空。星链项目旨在通过低地球轨道星座,为全球尤其是偏远欠发达区域提供低时延、高速的宽带互联网接入服务。该卫星运行在550公里左右的近地轨道,属于星链早期组网卫星,依托Ku、Ka频段与地面终端通信,助力星链完成全球互联网覆盖的组网布局,为用户提供稳定的卫星互联网连接。

基本信息
目录编号:
47356
目录名称:
STARLINK-2049
国际标识:
2021-005H
轨道中心:
EARTH
卫星名称:
星链-2049
卫星全名:
星链-2049 (STARLINK-2049 )
卫星状态:
在轨 (已飞行1879 天)
发射日期:
2021-01-20 UTC
国别 :
美国 (US)
星等 :
--
轨道信息
数据来源 国际轨道数据 AOE轨道数据
星历时间 2026-03-14T03:35:15+0800
19小时前
查看轨道信息
2026-03-13T16:00:00+0800
1天前
查看轨道信息
半长轴 6925.308km 6925.308km
偏心率 0.0001464 0.0001416
轨道倾角 53.054° 53.055°
近地点辐角 93.947° 82.593°
升交点赤经 13.095° 15.265°
平近点角 266.169° 177.753°
近地点 546.157km 546.19km
远地点 548.185km 548.152km
周期 95.591分钟 95.591分钟
每日圈数 15.064133 15.064134
详细信息
固有亮度:
5
最大亮度:
2.5
卫星平台:
Starlink V1.0
覆盖范围:
全球
运营商:
太空探索技术公司
运营商所在国:
美国
制造商(研发单位):
太空探索技术公司
制造商所在国:
美国
使用方式:
暂无
卫星简介
星链(Starlink)计划是由太空探索技术公司(SpaceX)提出的一个巨型低轨卫星互联网星座项目,计划在2019年至2024年间在太空搭建由约1.2万颗卫星组成的“星链”网络,其中1584颗将部署在地球上空550千米处的近地轨道,并从2020年开始工作。该卫星仍在工作。
2D轨道图
3D轨道图
轨道高度分析图
轨道倾角分析图
轨道综合分析图
查看轨道综合分析图